Tracking 31027 objects as of 19-Jul-2025
HD Live streaming from Space Station
objects crossing your sky now

COSMOS 2251 DEB

Track COSMOS 2251 DEB now!
10-day predictions


NORAD ID: 34953
Int'l Code: 1993-036AEG
Perigee: 635.1 km
Apogee: 719.9 km
Inclination: 74.1 °
Period: 98.2 minutes
Semi major axis: 7048 km
RCS: 0.0019 m2 (small)
Launch date: June 16, 1993
Source: Commonwealth of Independent States (former USSR) (CIS)
Launch site: PLESETSK MISSILE AND SPACE COMPLEX (PKMTR)

Note: This is SATELLITE DEBRIS
Your satellite tracking list
FLOCK 3P 17
Track 1 satellite(s)




NASA's NSSDC Master Catalog

Two Line Element Set (TLE):
1 34953U 93036AEG 25199.56855119  .00002752  00000-0  48243-3 0  9991
2 34953  74.0940 310.9126 0060183 345.9192  28.0960 14.67091643859696
Source of the keplerian elements: AFSPC